{"data":{"norad_id":37190,"epoch":"2026-05-25T01:22:52.485024Z","epoch_age_seconds":67398,"freshness":"FRESH","line1":"1 37190U 10054C   26145.05755191 -.00000092  00000+0  66891-4 0  9996","line2":"2 37190  52.0004 178.5497 0000203  22.7372 354.8520 12.62261802719950","mean_motion":12.62261802,"eccentricity":2.03e-5,"inclination_deg":52.0004,"raan_deg":178.5497,"arg_perigee_deg":22.7372,"mean_anomaly_deg":354.852,"bstar":6.6891e-5,"rev_number":71995,"period_min":114.08092978163,"perigee_km":1413.4644856626,"apogee_km":1413.7808311047,"semimajor_km":7791.7596583836,"source":"CELESTRAK","updated_at":"2026-05-25T13:38:23.040358Z"}}